EXS76BE LGKR-EGNM

Flight info

Callsign EXS76BE
Flight time N/A
Altitude 40000
Route OLGAT DCT CRAYE DCT GISAM DCT UMSON DCT SAL DCT PEVAL DCT SOTOV DCT KPT DCT TEDGO DCT ASBON DCT RAVLO Y70 BATLI DCT LBA
Aircraft B738/M-SDE2E3FGHIRWXY/LB1

Departure

Time 2026-05-07 15:13
Airport Corfu Ioannis Kapodistrias International Airport (LGKR)

Arrival

Time N/A
Airport Leeds Bradford Airport (EGNM)
Time Latitude Longitude Altitude Speed Heading
2026-05-07 14:50 39.60696 19.91363 7 ft 0 kts 80°
2026-05-07 15:06 39.60693 19.91342 9 ft 4 kts 75°
2026-05-07 15:06 39.60685 19.91309 8 ft 4 kts 66°
2026-05-07 15:06 39.60673 19.91278 8 ft 4 kts 56°
2026-05-07 15:07 39.60656 19.91251 9 ft 4 kts 45°
2026-05-07 15:07 39.60636 19.91228 9 ft 4 kts 33°
2026-05-07 15:07 39.60612 19.91211 7 ft 4 kts 21°
2026-05-07 15:07 39.60594 19.91203 7 ft 0 kts 18°
2026-05-07 15:11 39.60598 19.91205 8 ft 5 kts 18°
2026-05-07 15:11 39.60695 19.91219 6 ft 23 kts 349°
2026-05-07 15:11 39.60856 19.91175 6 ft 17 kts 349°
2026-05-07 15:11 39.60976 19.91142 7 ft 18 kts 349°
2026-05-07 15:12 39.61093 19.91111 8 ft 17 kts 348°
2026-05-07 15:12 39.61176 19.91090 7 ft 0 kts 342°
2026-05-07 15:12 39.61177 19.91090 7 ft 0 kts 342°
2026-05-07 15:12 39.61221 19.91034 7 ft 22 kts 299°
2026-05-07 15:13 39.61092 19.90981 5 ft 58 kts 168°
2026-05-07 15:13 39.60327 19.91186 8 ft 163 kts 168°
2026-05-07 15:13 39.58969 19.91508 324 ft 225 kts 169°
2026-05-07 15:13 39.57452 19.92160 1298 ft 233 kts 148°
2026-05-07 15:14 39.56263 19.93685 2507 ft 252 kts 126°
2026-05-07 15:14 39.55441 19.95847 3026 ft 286 kts 107°
2026-05-07 15:14 39.55376 19.98554 3243 ft 317 kts 81°
2026-05-07 15:14 39.55937 20.01349 3664 ft 329 kts 82°
2026-05-07 15:15 39.55765 20.04306 4285 ft 328 kts 112°
2026-05-07 15:15 39.54555 20.06781 5061 ft 326 kts 129°
2026-05-07 15:15 39.53218 20.09186 5603 ft 334 kts 124°
2026-05-07 15:15 39.52031 20.11793 6149 ft 340 kts 121°
2026-05-07 15:16 39.50912 20.14514 6657 ft 346 kts 117°
2026-05-07 15:16 39.50364 20.17589 7126 ft 358 kts 93°
2026-05-07 15:16 39.50766 20.20795 7691 ft 367 kts 73°
2026-05-07 15:16 39.51976 20.23730 8054 ft 375 kts 54°
2026-05-07 15:17 39.53873 20.25990 8068 ft 380 kts 33°
2026-05-07 15:17 39.56348 20.27304 8080 ft 381 kts 11°
2026-05-07 15:17 39.58944 20.27386 8644 ft 377 kts 349°
2026-05-07 15:17 39.61376 20.26369 9743 ft 358 kts 329°
2026-05-07 15:18 39.63353 20.24578 10887 ft 337 kts 311°
2026-05-07 15:18 39.64774 20.22290 12004 ft 320 kts 299°
2026-05-07 15:18 39.66006 20.19861 12708 ft 324 kts 298°
2026-05-07 15:18 39.67222 20.17379 13436 ft 327 kts 297°
2026-05-07 15:19 39.68439 20.14880 14172 ft 328 kts 297°
2026-05-07 15:19 39.69663 20.12374 14786 ft 332 kts 297°
2026-05-07 15:19 39.70906 20.09836 15351 ft 336 kts 298°
2026-05-07 15:19 39.72168 20.07271 15983 ft 337 kts 298°
2026-05-07 15:20 39.73437 20.04700 16588 ft 339 kts 298°
2026-05-07 15:20 39.74717 20.02111 17155 ft 342 kts 298°
2026-05-07 15:20 39.76006 19.99501 17697 ft 345 kts 298°
2026-05-07 15:20 39.77309 19.96867 18283 ft 347 kts 298°
2026-05-07 15:21 39.78615 19.94226 18762 ft 348 kts 298°
2026-05-07 15:21 39.79927 19.91571 19248 ft 350 kts 299°
2026-05-07 15:21 39.81243 19.88905 19736 ft 350 kts 299°
2026-05-07 15:21 39.82561 19.86234 20213 ft 352 kts 299°
2026-05-07 15:22 39.83884 19.83549 20649 ft 354 kts 299°
2026-05-07 15:22 39.85216 19.80846 21089 ft 355 kts 299°
2026-05-07 15:22 39.86551 19.78131 21506 ft 357 kts 299°
2026-05-07 15:22 39.87896 19.75395 21884 ft 360 kts 299°
2026-05-07 15:23 39.89245 19.72649 22289 ft 361 kts 299°
2026-05-07 15:23 39.90600 19.69889 22698 ft 362 kts 299°
2026-05-07 15:23 39.91958 19.67119 23080 ft 364 kts 299°
2026-05-07 15:23 39.93323 19.64333 23445 ft 365 kts 300°
2026-05-07 15:24 39.94689 19.61541 23779 ft 367 kts 300°
2026-05-07 15:24 39.96062 19.58733 24083 ft 368 kts 300°
2026-05-07 15:24 39.97436 19.55922 24383 ft 368 kts 299°
2026-05-07 15:24 39.98803 19.53120 24674 ft 369 kts 299°
2026-05-07 15:25 40.00185 19.50287 24953 ft 370 kts 299°
2026-05-07 15:25 40.01565 19.47455 25232 ft 371 kts 299°
2026-05-07 15:25 40.02954 19.44602 25486 ft 373 kts 299°
2026-05-07 15:25 40.04344 19.41743 25709 ft 374 kts 299°
2026-05-07 15:26 40.05741 19.38868 25958 ft 375 kts 299°
2026-05-07 15:26 40.07135 19.35996 26222 ft 375 kts 299°
2026-05-07 15:26 40.08534 19.33112 26467 ft 376 kts 299°
2026-05-07 15:26 40.09933 19.30225 26696 ft 377 kts 299°
2026-05-07 15:27 40.11336 19.27327 26927 ft 378 kts 299°
2026-05-07 15:27 40.12740 19.24425 27126 ft 379 kts 299°
2026-05-07 15:27 40.14155 19.21497 27339 ft 379 kts 299°
2026-05-07 15:27 40.15564 19.18578 27566 ft 380 kts 298°
2026-05-07 15:28 40.16976 19.15649 27712 ft 382 kts 298°
2026-05-07 15:28 40.18376 19.12742 27864 ft 384 kts 298°
2026-05-07 15:28 40.19797 19.09791 28062 ft 384 kts 298°
2026-05-07 15:28 40.21221 19.06832 28252 ft 384 kts 298°
2026-05-07 15:29 40.22671 19.03884 28424 ft 386 kts 302°
2026-05-07 15:29 40.24452 19.01218 28569 ft 393 kts 311°
2026-05-07 15:29 40.26527 18.98866 28736 ft 397 kts 317°
2026-05-07 15:29 40.28889 18.96891 28877 ft 404 kts 326°
2026-05-07 15:30 40.30535 18.95745 28980 ft 405 kts 327°
2026-05-07 15:30 40.33045 18.94056 29118 ft 406 kts 327°
2026-05-07 15:30 40.36418 18.91818 29289 ft 407 kts 327°
2026-05-07 15:30 40.38093 18.90703 29383 ft 408 kts 327°
2026-05-07 15:31 40.40619 18.89011 29518 ft 408 kts 327°
2026-05-07 15:31 40.43148 18.87307 29640 ft 409 kts 326°
2026-05-07 15:31 40.48223 18.83857 29849 ft 411 kts 326°
2026-05-07 15:32 40.50756 18.82128 29971 ft 411 kts 326°
2026-05-07 15:32 40.53295 18.80393 30078 ft 411 kts 326°
2026-05-07 15:32 40.58361 18.76922 30276 ft 412 kts 326°
2026-05-07 15:33 40.60933 18.75158 30395 ft 411 kts 326°
2026-05-07 15:33 40.63464 18.73422 30518 ft 410 kts 326°
2026-05-07 15:33 40.65995 18.71684 30659 ft 410 kts 326°
2026-05-07 15:33 40.68530 18.69940 30667 ft 412 kts 326°
2026-05-07 15:34 40.73585 18.66458 30814 ft 412 kts 325°
2026-05-07 15:34 40.76123 18.64711 30937 ft 411 kts 325°
2026-05-07 15:34 40.78654 18.62966 31035 ft 411 kts 325°
2026-05-07 15:35 40.83719 18.59468 31187 ft 410 kts 325°
2026-05-07 15:35 40.88773 18.55970 31343 ft 410 kts 325°
2026-05-07 15:36 40.93827 18.52465 31407 ft 412 kts 325°
2026-05-07 15:36 40.98903 18.48941 31548 ft 411 kts 325°
2026-05-07 15:37 41.03967 18.45420 31651 ft 411 kts 324°
2026-05-07 15:37 41.09023 18.41899 31834 ft 409 kts 324°
2026-05-07 15:38 41.14056 18.38384 31917 ft 411 kts 324°
2026-05-07 15:38 41.19121 18.34841 32001 ft 411 kts 324°
2026-05-07 15:39 41.21647 18.33074 32109 ft 410 kts 324°
2026-05-07 15:39 41.24162 18.31313 32213 ft 409 kts 324°
2026-05-07 15:39 41.29177 18.27794 32321 ft 408 kts 324°
2026-05-07 15:40 41.34192 18.24268 32502 ft 407 kts 324°
2026-05-07 15:40 41.39208 18.20736 32650 ft 406 kts 323°
2026-05-07 15:41 41.44152 18.17248 32809 ft 405 kts 323°
2026-05-07 15:41 41.49115 18.13741 32967 ft 404 kts 323°
2026-05-07 15:42 41.53855 18.09866 33086 ft 397 kts 318°
2026-05-07 15:42 41.58435 18.05766 33300 ft 395 kts 318°
2026-05-07 15:43 41.63020 18.01662 33311 ft 398 kts 318°
2026-05-07 15:43 41.67635 17.97555 33411 ft 399 kts 318°
2026-05-07 15:44 41.69938 17.95509 33522 ft 397 kts 318°
2026-05-07 15:44 41.72238 17.93465 33619 ft 396 kts 318°
2026-05-07 15:44 41.76827 17.89378 33758 ft 396 kts 318°
2026-05-07 15:45 41.81407 17.85292 33933 ft 394 kts 318°
2026-05-07 15:45 41.85981 17.81202 34007 ft 396 kts 318°
2026-05-07 15:46 41.92811 17.74931 34137 ft 391 kts 313°
2026-05-07 15:47 41.96863 17.70118 34289 ft 388 kts 310°
2026-05-07 15:47 42.00815 17.65269 34395 ft 388 kts 310°
2026-05-07 15:48 42.04809 17.60396 34499 ft 388 kts 310°
2026-05-07 15:48 42.08846 17.55499 34582 ft 389 kts 310°
2026-05-07 15:49 42.12856 17.50639 34602 ft 392 kts 310°
2026-05-07 15:49 42.16913 17.45722 34699 ft 392 kts 310°
2026-05-07 15:50 42.20961 17.40809 34811 ft 391 kts 310°
2026-05-07 15:50 42.25007 17.35887 34895 ft 392 kts 310°
2026-05-07 15:51 42.29049 17.30960 35041 ft 391 kts 310°
2026-05-07 15:51 42.33086 17.26031 35135 ft 392 kts 310°
2026-05-07 15:52 42.37144 17.21064 35162 ft 394 kts 310°
2026-05-07 15:52 42.41210 17.16082 35267 ft 394 kts 310°
2026-05-07 15:53 42.45270 17.11100 35377 ft 394 kts 310°
2026-05-07 15:53 42.49323 17.06114 35489 ft 393 kts 310°
2026-05-07 15:54 42.53375 17.01121 35552 ft 395 kts 310°
2026-05-07 15:54 42.57436 16.96108 35663 ft 395 kts 310°
2026-05-07 15:55 42.61510 16.91067 35678 ft 398 kts 310°
2026-05-07 15:55 42.65604 16.85994 35712 ft 399 kts 310°
2026-05-07 15:55 42.67670 16.83427 35306 ft 406 kts 310°
2026-05-07 15:56 42.69744 16.80846 35131 ft 410 kts 310°
2026-05-07 15:56 42.73975 16.75585 35037 ft 412 kts 310°
2026-05-07 15:57 42.78203 16.70323 35034 ft 412 kts 310°
2026-05-07 15:57 42.82433 16.65043 35041 ft 413 kts 310°
2026-05-07 15:58 42.86669 16.59744 35033 ft 414 kts 310°
2026-05-07 15:58 42.90910 16.54428 35033 ft 414 kts 310°
2026-05-07 15:59 42.95150 16.49104 35033 ft 414 kts 310°
2026-05-07 15:59 42.99391 16.43767 35030 ft 415 kts 310°
2026-05-07 16:00 43.03627 16.38426 35030 ft 415 kts 310°
2026-05-07 16:00 43.07863 16.33075 35050 ft 416 kts 310°
2026-05-07 16:01 43.12085 16.27729 35028 ft 417 kts 310°
2026-05-07 16:01 43.16340 16.22332 35023 ft 417 kts 310°
2026-05-07 16:02 43.20596 16.16923 35030 ft 417 kts 310°
2026-05-07 16:02 43.24855 16.11500 35029 ft 418 kts 310°
2026-05-07 16:03 43.29108 16.06074 35051 ft 418 kts 310°
2026-05-07 16:03 43.33369 16.00625 35037 ft 419 kts 310°
2026-05-07 16:04 43.37629 15.95168 35039 ft 419 kts 310°
2026-05-07 16:04 43.41889 15.89699 35024 ft 419 kts 310°
2026-05-07 16:05 43.46148 15.84219 35029 ft 419 kts 310°
2026-05-07 16:05 43.50400 15.78740 35027 ft 419 kts 310°
2026-05-07 16:06 43.54581 15.73167 35032 ft 417 kts 308°
2026-05-07 16:06 43.58596 15.67405 35026 ft 416 kts 307°
2026-05-07 16:07 43.62603 15.61628 35039 ft 417 kts 307°
2026-05-07 16:07 43.66626 15.55866 35021 ft 417 kts 307°
2026-05-07 16:08 43.70657 15.50104 35029 ft 417 kts 307°
2026-05-07 16:08 43.74687 15.44335 35031 ft 417 kts 307°
2026-05-07 16:09 43.78711 15.38562 35029 ft 417 kts 307°
2026-05-07 16:09 43.82705 15.32819 35023 ft 417 kts 307°
2026-05-07 16:10 43.86721 15.27032 35041 ft 417 kts 307°
2026-05-07 16:10 43.90736 15.21235 35025 ft 417 kts 307°
2026-05-07 16:11 43.94755 15.15440 35019 ft 417 kts 308°
2026-05-07 16:11 43.98904 15.09787 35029 ft 418 kts 309°
2026-05-07 16:12 44.03123 15.04139 35021 ft 419 kts 309°
2026-05-07 16:12 44.07274 14.98545 35016 ft 418 kts 309°
2026-05-07 16:13 44.11439 14.92891 35017 ft 418 kts 309°
2026-05-07 16:13 44.15597 14.87222 35021 ft 418 kts 309°
2026-05-07 16:14 44.19758 14.81535 35021 ft 419 kts 309°
2026-05-07 16:14 44.23923 14.75831 35031 ft 420 kts 309°
2026-05-07 16:15 44.28089 14.70114 35024 ft 420 kts 309°
2026-05-07 16:15 44.32257 14.64385 35017 ft 421 kts 309°
2026-05-07 16:16 44.36424 14.58643 35011 ft 421 kts 309°
2026-05-07 16:16 44.40594 14.52885 35019 ft 421 kts 309°
2026-05-07 16:17 44.44762 14.47119 35014 ft 421 kts 309°
2026-05-07 16:17 44.48924 14.41347 35027 ft 422 kts 309°
2026-05-07 16:18 44.53094 14.35552 35017 ft 422 kts 309°
2026-05-07 16:18 44.57262 14.29748 35018 ft 422 kts 308°
2026-05-07 16:19 44.61432 14.23930 35011 ft 422 kts 308°
2026-05-07 16:19 44.65564 14.18150 35010 ft 422 kts 308°
2026-05-07 16:20 44.69723 14.12321 35035 ft 422 kts 308°
2026-05-07 16:20 44.73206 14.07430 35020 ft 423 kts 308°
2026-05-07 16:21 44.78038 14.00630 35014 ft 423 kts 308°
2026-05-07 16:21 44.82186 13.94779 35026 ft 422 kts 308°
2026-05-07 16:22 44.85666 13.89860 35015 ft 422 kts 308°
2026-05-07 16:22 44.89809 13.83993 35022 ft 422 kts 308°
2026-05-07 16:23 44.93924 13.78153 35042 ft 422 kts 308°
2026-05-07 16:23 44.98062 13.72266 35022 ft 422 kts 308°
2026-05-07 16:24 45.02191 13.66381 35002 ft 422 kts 308°
2026-05-07 16:24 45.06317 13.60487 35000 ft 421 kts 308°
2026-05-07 16:25 45.10432 13.54594 34994 ft 421 kts 308°
2026-05-07 16:25 45.14541 13.48698 34998 ft 421 kts 308°
2026-05-07 16:26 45.18644 13.42797 35008 ft 420 kts 307°
2026-05-07 16:26 45.22740 13.36893 34991 ft 420 kts 307°
2026-05-07 16:27 45.26833 13.30982 34985 ft 419 kts 307°
2026-05-07 16:27 45.30913 13.25084 34985 ft 419 kts 308°
2026-05-07 16:28 45.35326 13.19571 34981 ft 423 kts 313°
2026-05-07 16:28 45.39850 13.14216 34977 ft 423 kts 313°
2026-05-07 16:29 45.44366 13.08843 34975 ft 423 kts 313°
2026-05-07 16:29 45.48863 13.03440 34969 ft 423 kts 312°
2026-05-07 16:30 45.53346 12.98021 34967 ft 422 kts 312°
2026-05-07 16:30 45.57823 12.92593 34977 ft 422 kts 312°
2026-05-07 16:31 45.62296 12.87159 34964 ft 422 kts 312°
2026-05-07 16:31 45.66765 12.81717 34972 ft 422 kts 313°
2026-05-07 16:32 45.71237 12.76260 34969 ft 423 kts 313°
2026-05-07 16:32 45.75707 12.70795 34970 ft 423 kts 313°
2026-05-07 16:33 45.80174 12.65320 34986 ft 423 kts 313°
2026-05-07 16:33 45.84644 12.59830 34982 ft 423 kts 313°
2026-05-07 16:34 45.89109 12.54335 35003 ft 423 kts 313°
2026-05-07 16:34 45.93580 12.48819 34993 ft 424 kts 313°
2026-05-07 16:35 45.98050 12.43294 34986 ft 424 kts 313°
2026-05-07 16:35 46.02522 12.37753 34982 ft 425 kts 313°
2026-05-07 16:36 46.06995 12.32199 34985 ft 424 kts 314°
2026-05-07 16:36 46.11459 12.26644 34972 ft 424 kts 313°
2026-05-07 16:37 46.15916 12.21085 34972 ft 424 kts 313°
2026-05-07 16:37 46.20373 12.15512 34957 ft 424 kts 313°
2026-05-07 16:38 46.24833 12.09924 34974 ft 425 kts 313°
2026-05-07 16:38 46.29298 12.04318 34971 ft 425 kts 313°
2026-05-07 16:39 46.33758 11.98705 34987 ft 425 kts 313°
2026-05-07 16:39 46.38228 11.93066 34975 ft 426 kts 314°
2026-05-07 16:40 46.42660 11.87465 34971 ft 425 kts 314°
2026-05-07 16:40 46.47107 11.81831 34974 ft 424 kts 314°
2026-05-07 16:41 46.51552 11.76187 34962 ft 424 kts 313°
2026-05-07 16:41 46.55990 11.70538 34959 ft 424 kts 313°
2026-05-07 16:42 46.60422 11.64884 34971 ft 424 kts 314°
2026-05-07 16:42 46.64861 11.59208 34966 ft 425 kts 314°
2026-05-07 16:43 46.69296 11.53524 34969 ft 425 kts 313°
2026-05-07 16:43 46.73732 11.47826 34975 ft 425 kts 313°
2026-05-07 16:44 46.78171 11.42111 34998 ft 426 kts 314°
2026-05-07 16:44 46.82607 11.36387 35019 ft 426 kts 314°
2026-05-07 16:45 46.87061 11.30624 35008 ft 428 kts 314°
2026-05-07 16:45 46.91521 11.24845 35006 ft 429 kts 314°
2026-05-07 16:46 46.96070 11.19154 35008 ft 433 kts 318°
2026-05-07 16:46 47.00961 11.13985 35016 ft 434 kts 320°
2026-05-07 16:47 47.05899 11.08901 35021 ft 434 kts 320°
2026-05-07 16:47 47.10803 11.03762 35012 ft 433 kts 320°
2026-05-07 16:48 47.15687 10.98584 35009 ft 432 kts 320°
2026-05-07 16:48 47.20556 10.93396 35014 ft 432 kts 320°
2026-05-07 16:49 47.25424 10.88196 35008 ft 433 kts 320°
2026-05-07 16:49 47.30292 10.82986 35025 ft 433 kts 320°
2026-05-07 16:50 47.35158 10.77767 35025 ft 432 kts 320°
2026-05-07 16:50 47.40024 10.72539 35018 ft 432 kts 320°
2026-05-07 16:51 47.44859 10.67325 35026 ft 432 kts 320°
2026-05-07 16:51 47.49680 10.62116 35026 ft 432 kts 320°
2026-05-07 16:52 47.54524 10.56871 35030 ft 431 kts 320°
2026-05-07 16:52 47.59366 10.51616 35021 ft 431 kts 320°
2026-05-07 16:53 47.64200 10.46357 35021 ft 431 kts 320°
2026-05-07 16:53 47.69033 10.41088 35021 ft 431 kts 320°
2026-05-07 16:54 47.73852 10.35823 35013 ft 431 kts 320°
2026-05-07 16:54 47.78546 10.30338 35020 ft 429 kts 317°
2026-05-07 16:55 47.83133 10.24640 35019 ft 429 kts 317°
2026-05-07 16:55 47.87715 10.18938 35029 ft 429 kts 317°
2026-05-07 16:56 47.92309 10.13251 35021 ft 430 kts 317°
2026-05-07 16:56 47.99215 10.04712 35021 ft 429 kts 317°
2026-05-07 16:57 48.03811 9.99013 35026 ft 430 kts 317°
2026-05-07 16:57 48.08411 9.93295 35019 ft 430 kts 317°
2026-05-07 16:58 48.13012 9.87563 35028 ft 431 kts 317°
2026-05-07 16:58 48.17615 9.81814 35020 ft 431 kts 317°
2026-05-07 16:59 48.22219 9.76049 35025 ft 431 kts 317°
2026-05-07 16:59 48.26827 9.70265 35026 ft 433 kts 317°
2026-05-07 17:00 48.31442 9.64458 35016 ft 433 kts 317°
2026-05-07 17:00 48.36023 9.58681 35025 ft 432 kts 317°
2026-05-07 17:01 48.40621 9.52868 35022 ft 432 kts 317°
2026-05-07 17:01 48.45220 9.47038 35027 ft 432 kts 317°
2026-05-07 17:02 48.49804 9.41213 35029 ft 432 kts 317°
2026-05-07 17:02 48.54398 9.35361 35043 ft 432 kts 317°
2026-05-07 17:03 48.58982 9.29509 35046 ft 432 kts 317°
2026-05-07 17:03 48.63838 9.24143 35043 ft 436 kts 329°
2026-05-07 17:04 48.69242 9.19986 35047 ft 436 kts 330°
2026-05-07 17:04 48.74671 9.15881 35055 ft 436 kts 330°
2026-05-07 17:05 48.80081 9.11728 35045 ft 436 kts 330°
2026-05-07 17:05 48.85479 9.07535 35043 ft 436 kts 330°
2026-05-07 17:06 48.90866 9.03327 35039 ft 435 kts 330°
2026-05-07 17:06 48.96232 8.99123 35046 ft 435 kts 330°
2026-05-07 17:07 49.01620 8.94893 35041 ft 436 kts 330°
2026-05-07 17:07 49.07005 8.90656 35036 ft 436 kts 330°
2026-05-07 17:08 49.12383 8.86414 35042 ft 436 kts 330°
2026-05-07 17:08 49.17772 8.82153 35040 ft 436 kts 330°
2026-05-07 17:09 49.22255 8.78601 35046 ft 436 kts 330°
2026-05-07 17:09 49.27642 8.74323 35044 ft 436 kts 330°
2026-05-07 17:10 49.33027 8.70035 35045 ft 436 kts 330°
2026-05-07 17:10 49.38411 8.65738 35045 ft 436 kts 330°
2026-05-07 17:11 49.43774 8.61446 35055 ft 436 kts 330°
2026-05-07 17:11 49.49145 8.57137 35048 ft 436 kts 330°
2026-05-07 17:12 49.54519 8.52816 35049 ft 436 kts 330°
2026-05-07 17:12 49.59896 8.48481 35049 ft 436 kts 330°
2026-05-07 17:13 49.65273 8.44135 35047 ft 436 kts 330°
2026-05-07 17:13 49.70644 8.39783 35049 ft 436 kts 330°
2026-05-07 17:14 49.76009 8.35425 35045 ft 436 kts 330°
2026-05-07 17:14 49.81380 8.31052 35046 ft 436 kts 330°
2026-05-07 17:15 49.86756 8.26663 35049 ft 437 kts 330°
2026-05-07 17:15 49.92129 8.22265 35056 ft 437 kts 330°
2026-05-07 17:16 49.97506 8.17853 35046 ft 437 kts 330°
2026-05-07 17:16 50.02825 8.13478 35054 ft 437 kts 330°
2026-05-07 17:17 50.08196 8.09048 35045 ft 437 kts 330°
2026-05-07 17:17 50.13567 8.04607 35046 ft 437 kts 330°
2026-05-07 17:18 50.18936 8.00156 35049 ft 437 kts 330°
2026-05-07 17:18 50.24301 7.95698 35050 ft 437 kts 330°
2026-05-07 17:19 50.29665 7.91228 35049 ft 437 kts 330°
2026-05-07 17:19 50.35030 7.86746 35049 ft 437 kts 330°
2026-05-07 17:20 50.40388 7.82259 35056 ft 437 kts 330°
2026-05-07 17:20 50.45747 7.77759 35045 ft 437 kts 330°
2026-05-07 17:21 50.51108 7.73245 35053 ft 437 kts 330°
2026-05-07 17:21 50.56462 7.68726 35050 ft 437 kts 330°
2026-05-07 17:22 50.61823 7.64188 35047 ft 437 kts 330°
2026-05-07 17:22 50.67186 7.59638 35044 ft 438 kts 330°
2026-05-07 17:23 50.72383 7.54667 35041 ft 437 kts 320°
2026-05-07 17:23 50.76570 7.47794 35055 ft 435 kts 309°
2026-05-07 17:24 50.80389 7.40583 35054 ft 435 kts 308°
2026-05-07 17:24 50.84265 7.33265 35043 ft 436 kts 309°
2026-05-07 17:25 50.88176 7.25932 35052 ft 436 kts 309°
2026-05-07 17:25 50.92099 7.18595 35053 ft 436 kts 309°
2026-05-07 17:26 50.96020 7.11249 35049 ft 437 kts 309°
2026-05-07 17:26 50.99923 7.03916 35047 ft 438 kts 308°
2026-05-07 17:27 51.03870 6.96477 35049 ft 437 kts 308°
2026-05-07 17:27 51.07760 6.89125 35047 ft 437 kts 308°
2026-05-07 17:28 51.11668 6.81716 35045 ft 437 kts 308°
2026-05-07 17:28 51.15594 6.74253 35054 ft 437 kts 308°
2026-05-07 17:29 51.19461 6.66878 35049 ft 437 kts 308°
2026-05-07 17:29 51.23356 6.59431 35049 ft 437 kts 308°
2026-05-07 17:30 51.27231 6.51999 35049 ft 437 kts 308°
2026-05-07 17:30 51.31118 6.44522 35052 ft 437 kts 308°
2026-05-07 17:31 51.34997 6.37040 35049 ft 437 kts 308°
2026-05-07 17:31 51.38903 6.29483 35054 ft 437 kts 308°
2026-05-07 17:32 51.42751 6.22016 35065 ft 438 kts 308°
2026-05-07 17:32 51.46604 6.14520 35305 ft 432 kts 307°
2026-05-07 17:33 51.48499 6.10827 35593 ft 425 kts 307°
2026-05-07 17:33 51.50362 6.07189 35881 ft 420 kts 307°
2026-05-07 17:33 51.52205 6.03585 36169 ft 415 kts 307°
2026-05-07 17:33 51.54024 6.00023 36461 ft 410 kts 307°
2026-05-07 17:34 51.55826 5.96491 36754 ft 406 kts 307°
2026-05-07 17:34 51.57603 5.93000 37061 ft 401 kts 307°
2026-05-07 17:34 51.59358 5.89549 37384 ft 397 kts 307°
2026-05-07 17:34 51.61097 5.86125 37694 ft 392 kts 307°
2026-05-07 17:35 51.62812 5.82742 38001 ft 388 kts 307°
2026-05-07 17:35 51.64509 5.79392 38344 ft 384 kts 307°
2026-05-07 17:35 51.66183 5.76081 38666 ft 379 kts 306°
2026-05-07 17:35 51.67841 5.72799 38940 ft 375 kts 306°
2026-05-07 17:36 51.69475 5.69560 39195 ft 371 kts 306°
2026-05-07 17:36 51.71092 5.66352 39448 ft 366 kts 306°
2026-05-07 17:36 51.72685 5.63186 39706 ft 361 kts 306°
2026-05-07 17:36 51.74257 5.60059 39953 ft 356 kts 306°
2026-05-07 17:37 51.75812 5.56960 40063 ft 357 kts 306°
2026-05-07 17:37 51.77387 5.53816 40011 ft 361 kts 306°
2026-05-07 17:37 51.80555 5.47479 40051 ft 365 kts 306°
2026-05-07 17:38 51.83754 5.41069 40051 ft 370 kts 306°
2026-05-07 17:38 51.86996 5.34558 40067 ft 374 kts 306°
2026-05-07 17:39 51.90271 5.27963 40079 ft 378 kts 306°
2026-05-07 17:39 51.93580 5.21284 40087 ft 382 kts 306°
2026-05-07 17:40 51.96897 5.14570 40072 ft 386 kts 306°
2026-05-07 17:40 52.00231 5.07805 40063 ft 389 kts 306°
2026-05-07 17:41 52.03597 5.00957 40074 ft 392 kts 306°
2026-05-07 17:41 52.07005 4.94003 40069 ft 395 kts 306°
2026-05-07 17:42 52.09290 4.89330 40077 ft 397 kts 306°
2026-05-07 17:42 52.09845 4.88195 40086 ft 397 kts 306°
2026-05-07 17:43 52.12962 4.81804 40071 ft 400 kts 306°
2026-05-07 17:43 52.16417 4.74702 40076 ft 402 kts 306°
2026-05-07 17:44 52.19847 4.67631 40085 ft 403 kts 306°
2026-05-07 17:44 52.23331 4.60431 40082 ft 405 kts 306°
2026-05-07 17:45 52.26822 4.53193 40071 ft 406 kts 306°
2026-05-07 17:45 52.30314 4.45934 40073 ft 408 kts 306°
2026-05-07 17:46 52.33818 4.38627 40077 ft 409 kts 306°
2026-05-07 17:46 52.37331 4.31282 40077 ft 410 kts 306°
2026-05-07 17:47 52.40842 4.23919 40076 ft 411 kts 306°
2026-05-07 17:47 52.44359 4.16523 40083 ft 412 kts 306°
2026-05-07 17:48 52.47872 4.09113 40087 ft 412 kts 306°
2026-05-07 17:48 52.51391 4.01669 40089 ft 413 kts 306°
2026-05-07 17:49 52.54912 3.94200 40097 ft 414 kts 306°
2026-05-07 17:49 52.58430 3.86713 40096 ft 414 kts 305°
2026-05-07 17:50 52.61950 3.79201 40091 ft 415 kts 305°
2026-05-07 17:50 52.65471 3.71665 40095 ft 415 kts 305°
2026-05-07 17:51 52.68987 3.64117 40092 ft 416 kts 305°
2026-05-07 17:51 52.72502 3.56547 40105 ft 416 kts 305°
2026-05-07 17:52 52.76015 3.48960 40111 ft 416 kts 305°
2026-05-07 17:52 52.79522 3.41362 40097 ft 417 kts 305°
2026-05-07 17:53 52.82760 3.34328 40098 ft 417 kts 305°
2026-05-07 17:53 52.86276 3.26669 40100 ft 417 kts 305°
2026-05-07 17:54 52.87861 3.22673 40045 ft 415 kts 294°
2026-05-07 17:54 52.88919 3.18264 40137 ft 410 kts 283°
2026-05-07 17:54 52.90016 3.10594 40125 ft 409 kts 281°
2026-05-07 17:55 52.91249 3.01362 40121 ft 410 kts 281°
2026-05-07 17:55 52.92499 2.92127 40108 ft 411 kts 281°
2026-05-07 17:56 52.93769 2.82880 40100 ft 411 kts 281°
2026-05-07 17:56 52.95039 2.73638 40096 ft 411 kts 281°
2026-05-07 17:57 52.96307 2.64377 40086 ft 412 kts 281°
2026-05-07 17:57 52.97565 2.55121 40104 ft 411 kts 281°
2026-05-07 17:58 52.98819 2.45838 40100 ft 412 kts 281°
2026-05-07 17:58 53.00066 2.36549 40094 ft 412 kts 281°
2026-05-07 17:59 53.01306 2.27249 40091 ft 413 kts 281°
2026-05-07 17:59 53.02539 2.17949 40090 ft 412 kts 281°
2026-05-07 18:00 53.03765 2.08634 40088 ft 413 kts 280°
2026-05-07 18:00 53.04974 1.99387 40101 ft 412 kts 280°
2026-05-07 18:01 53.06185 1.90065 40046 ft 414 kts 280°
2026-05-07 18:01 53.06795 1.85341 39744 ft 422 kts 280°
2026-05-07 18:01 53.07410 1.80568 39554 ft 422 kts 280°
2026-05-07 18:02 53.08631 1.71050 39086 ft 418 kts 280°
2026-05-07 18:02 53.09233 1.66337 38867 ft 416 kts 280°
2026-05-07 18:02 53.09832 1.61625 38618 ft 415 kts 280°
2026-05-07 18:03 53.10427 1.56934 38336 ft 414 kts 280°
2026-05-07 18:03 53.11018 1.52249 38066 ft 414 kts 280°
2026-05-07 18:03 53.11609 1.47548 37798 ft 417 kts 279°
2026-05-07 18:03 53.12205 1.42795 37537 ft 422 kts 280°
2026-05-07 18:04 53.12804 1.37991 37268 ft 426 kts 279°
2026-05-07 18:04 53.13408 1.33138 37004 ft 428 kts 280°
2026-05-07 18:04 53.14011 1.28281 36742 ft 428 kts 279°
2026-05-07 18:04 53.14606 1.23483 36114 ft 420 kts 279°
2026-05-07 18:05 53.15186 1.18789 35765 ft 406 kts 279°
2026-05-07 18:05 53.15747 1.14240 35211 ft 399 kts 279°
2026-05-07 18:05 53.16294 1.09773 34921 ft 386 kts 279°
2026-05-07 18:05 53.16828 1.05396 34374 ft 388 kts 279°
2026-05-07 18:06 53.17365 1.00962 34084 ft 395 kts 279°
2026-05-07 18:06 53.17919 0.96366 33484 ft 411 kts 279°
2026-05-07 18:06 53.18480 0.91710 33120 ft 403 kts 279°
2026-05-07 18:06 53.19026 0.87183 32631 ft 394 kts 279°
2026-05-07 18:07 53.19557 0.82775 32233 ft 383 kts 279°
2026-05-07 18:07 53.20074 0.78466 31817 ft 374 kts 279°
2026-05-07 18:07 53.20574 0.74275 31430 ft 365 kts 279°
2026-05-07 18:07 53.21067 0.70124 31060 ft 366 kts 279°
2026-05-07 18:08 53.21567 0.65881 30703 ft 381 kts 279°
2026-05-07 18:08 53.22083 0.61480 30242 ft 394 kts 279°
2026-05-07 18:08 53.22609 0.57005 29699 ft 385 kts 279°
2026-05-07 18:08 53.23115 0.52715 29313 ft 372 kts 279°
2026-05-07 18:09 53.23604 0.48545 29011 ft 359 kts 278°
2026-05-07 18:09 53.24077 0.44496 28523 ft 352 kts 278°
2026-05-07 18:09 53.24536 0.40545 28178 ft 342 kts 278°
2026-05-07 18:09 53.24987 0.36646 27764 ft 344 kts 278°
2026-05-07 18:10 53.25446 0.32642 27398 ft 359 kts 278°
2026-05-07 18:10 53.25924 0.28463 26988 ft 369 kts 278°
2026-05-07 18:10 53.26400 0.24319 26553 ft 359 kts 278°
2026-05-07 18:10 53.26864 0.20282 26133 ft 349 kts 278°
2026-05-07 18:11 53.27313 0.16357 25756 ft 339 kts 278°
2026-05-07 18:11 53.27609 0.13762 25496 ft 334 kts 278°
2026-05-07 18:11 53.28174 0.08777 25007 ft 326 kts 278°
2026-05-07 18:11 53.28599 0.05039 24643 ft 326 kts 279°
2026-05-07 18:12 53.29278 0.01318 24178 ft 345 kts 291°
2026-05-07 18:12 53.30306 -0.02340 23688 ft 345 kts 294°
2026-05-07 18:12 53.31368 -0.05858 23195 ft 336 kts 294°
2026-05-07 18:12 53.32396 -0.09256 22844 ft 325 kts 294°
2026-05-07 18:13 53.33391 -0.12581 22437 ft 317 kts 294°
2026-05-07 18:13 53.34359 -0.15857 22127 ft 310 kts 293°
2026-05-07 18:13 53.35315 -0.19125 21733 ft 311 kts 293°
2026-05-07 18:13 53.36267 -0.22402 21413 ft 325 kts 293°
2026-05-07 18:14 53.37270 -0.25859 21018 ft 332 kts 293°
2026-05-07 18:14 53.38263 -0.29283 20631 ft 322 kts 293°
2026-05-07 18:14 53.39227 -0.32611 20280 ft 313 kts 293°
2026-05-07 18:14 53.40165 -0.35858 20299 ft 312 kts 293°
2026-05-07 18:15 53.41117 -0.39164 20243 ft 313 kts 293°
2026-05-07 18:15 53.42041 -0.42364 20238 ft 296 kts 292°
2026-05-07 18:15 53.42913 -0.45387 20220 ft 280 kts 292°
2026-05-07 18:15 53.43734 -0.48236 20226 ft 263 kts 292°
2026-05-07 18:16 53.44505 -0.50917 20220 ft 248 kts 292°
2026-05-07 18:16 53.45241 -0.53482 20174 ft 241 kts 292°
2026-05-07 18:16 53.45974 -0.56049 20135 ft 248 kts 292°
2026-05-07 18:16 53.46731 -0.58703 19680 ft 261 kts 292°
2026-05-07 18:17 53.47555 -0.61610 18686 ft 289 kts 292°
2026-05-07 18:17 53.48452 -0.64769 17608 ft 310 kts 292°
2026-05-07 18:17 53.49409 -0.68127 16538 ft 326 kts 293°
2026-05-07 18:17 53.50408 -0.71631 15502 ft 338 kts 293°
2026-05-07 18:18 53.51435 -0.75248 14519 ft 347 kts 293°
2026-05-07 18:18 53.52482 -0.78940 13528 ft 353 kts 293°
2026-05-07 18:18 53.53545 -0.82680 12495 ft 356 kts 293°
2026-05-07 18:18 53.54618 -0.86452 11495 ft 359 kts 293°
2026-05-07 18:19 53.55693 -0.90232 10579 ft 360 kts 293°
2026-05-07 18:19 53.56770 -0.94029 9648 ft 358 kts 293°
2026-05-07 18:19 53.57828 -0.97759 9297 ft 347 kts 293°
2026-05-07 18:19 53.58879 -1.01478 9212 ft 356 kts 293°
2026-05-07 18:20 53.59945 -1.05258 9070 ft 358 kts 293°
2026-05-07 18:20 53.60969 -1.09059 9024 ft 355 kts 288°
2026-05-07 18:20 53.61633 -1.13046 9063 ft 353 kts 280°
2026-05-07 18:20 53.62128 -1.17112 9023 ft 354 kts 279°
2026-05-07 18:21 53.62715 -1.21137 9010 ft 356 kts 287°
2026-05-07 18:21 53.63658 -1.24983 9047 ft 355 kts 291°
2026-05-07 18:21 53.64625 -1.28823 9025 ft 356 kts 290°
2026-05-07 18:21 53.65586 -1.32666 9037 ft 356 kts 290°
2026-05-07 18:22 53.66546 -1.36519 9022 ft 357 kts 290°
2026-05-07 18:22 53.67181 -1.39076 9017 ft 357 kts 290°
2026-05-07 18:22 53.68460 -1.44233 9029 ft 356 kts 290°
2026-05-07 18:22 53.69400 -1.48021 8683 ft 344 kts 290°
2026-05-07 18:23 53.70324 -1.51751 7803 ft 343 kts 290°
2026-05-07 18:23 53.71233 -1.55442 6889 ft 339 kts 290°
2026-05-07 18:23 53.72132 -1.59109 5986 ft 337 kts 290°
2026-05-07 18:23 53.73030 -1.62750 5076 ft 335 kts 290°
2026-05-07 18:24 53.73929 -1.66379 4377 ft 332 kts 290°
2026-05-07 18:24 53.74821 -1.69963 4233 ft 335 kts 290°
2026-05-07 18:24 53.75732 -1.73625 4107 ft 339 kts 290°
2026-05-07 18:24 53.76702 -1.77261 3995 ft 343 kts 297°
2026-05-07 18:25 53.78271 -1.80285 4006 ft 345 kts 320°
2026-05-07 18:25 53.80308 -1.82463 4021 ft 343 kts 329°
2026-05-07 18:25 53.82322 -1.84349 3985 ft 319 kts 330°
2026-05-07 18:25 53.84199 -1.86064 3982 ft 294 kts 330°
2026-05-07 18:26 53.85944 -1.87645 3963 ft 275 kts 330°
2026-05-07 18:26 53.87567 -1.89115 3979 ft 258 kts 330°
2026-05-07 18:26 53.89141 -1.90531 3989 ft 255 kts 330°
2026-05-07 18:26 53.90684 -1.91909 3976 ft 245 kts 330°
2026-05-07 18:27 53.92164 -1.93221 3976 ft 235 kts 330°
2026-05-07 18:27 53.93592 -1.94487 3974 ft 230 kts 331°
2026-05-07 18:27 53.95083 -1.95378 3968 ft 232 kts 352°
2026-05-07 18:27 53.96167 -1.95284 3975 ft 232 kts 16°
2026-05-07 18:28 53.97855 -1.93263 4005 ft 228 kts 56°
2026-05-07 18:28 53.98760 -1.91013 3997 ft 234 kts 60°
2026-05-07 18:28 53.99630 -1.88679 3975 ft 232 kts 68°
2026-05-07 18:28 53.99811 -1.86102 3985 ft 212 kts 110°
2026-05-07 18:29 53.99017 -1.84307 3987 ft 180 kts 156°
2026-05-07 18:29 53.97889 -1.83410 3975 ft 185 kts 144°
2026-05-07 18:29 53.96978 -1.81920 4017 ft 181 kts 141°
2026-05-07 18:29 53.96044 -1.80521 3943 ft 180 kts 143°
2026-05-07 18:30 53.95077 -1.79088 3366 ft 184 kts 141°
2026-05-07 18:30 53.94140 -1.77655 2858 ft 177 kts 141°
2026-05-07 18:30 53.93268 -1.76314 2586 ft 162 kts 141°
2026-05-07 18:30 53.92460 -1.75073 2356 ft 151 kts 141°
2026-05-07 18:31 53.91686 -1.73888 2129 ft 150 kts 141°
2026-05-07 18:31 53.90905 -1.72688 1882 ft 152 kts 141°
2026-05-07 18:31 53.90125 -1.71492 1655 ft 151 kts 141°
2026-05-07 18:31 53.89347 -1.70300 1401 ft 152 kts 139°
2026-05-07 18:32 53.88558 -1.69085 1156 ft 155 kts 138°
2026-05-07 18:32 53.87813 -1.67948 973 ft 137 kts 135°
2026-05-07 18:32 53.87371 -1.67231 779 ft 126 kts 139°
2026-05-07 18:32 53.87232 -1.67023 741 ft 123 kts 138°
2026-05-07 18:33 53.87200 -1.66975 735 ft 122 kts 138°